Home   Weather   Kortrijk   Past weeks

Flag for Belgium Past Weather in Kortrijk, Belgium — Yesterday and Last 2 Weeks

Now
45 °F

Overcast.


Feels Like: 45 °F
Forecast: 39 / 50 °F
Wind: 2 mph from North

Location: Lille Airport

Current Time: Dec 9, 2016 at 6:47:24 am

Latest Report: Dec 9, 2016 at 6:00 am


Visibility: 5 mi

Pressure: 30.39 "Hg

Humidity: 93%

Dew Point: 43 °F

Location of KortrijkLocation

Past Weather in Kortrijk — Graph

°F

Kortrijk Temperature Yesterday

Maximum temperature yesterday: 46 °F (at 2:30 pm)
Minimum temperature yesterday: 37 °F (at 3:30 am)
Average temperature yesterday: 44 °F

High & Low Weather Summary for the Past Weeks

 TemperatureHumidityPressure
High52 °F (Nov 24, 12:30 pm)100% (Nov 26, 11:30 pm)30.57 "Hg (Nov 26, 11:30 pm)
Low23 °F (Nov 30, 6:30 am)53% (Nov 30, 2:00 pm)30.04 "Hg (Nov 24, 5:00 am)
Average39 °F84%30.29 "Hg
* Reported Nov 24 5:00 am — Dec 9 5:30 am, Kortrijk, Weather by CustomWeather, © 2016

Note: Actual official high and low records may vary slightly from our data, if they occured in-between our weather recording intervals... More about our weather records

Advertising

Kortrijk Weather History for the Previous 24 Hours

Scroll right to see more
 ConditionsComfort  
Time TempWeatherWind HumidityBarometerVisibility
5:30 am
Fri, Dec 9
45 °FMostly cloudy.7 mph93%30.36 "Hg5 mi
5:00 am45 °FOvercast.8 mph93%30.36 "Hg4 mi
4:30 am45 °FOvercast.7 mph93%30.39 "Hg4 mi
4:00 am45 °FMostly cloudy.7 mph93%30.39 "Hg4 mi
3:30 am46 °FMostly cloudy.6 mph87%30.39 "HgN/A
2:30 am46 °FMostly cloudy.7 mph82%30.39 "HgN/A
2:00 am46 °FOvercast.5 mph82%30.39 "HgN/A
1:30 am46 °FMostly cloudy.8 mph82%30.39 "HgN/A
1:00 am46 °FOvercast.8 mph82%30.39 "HgN/A
12:30 am46 °FOvercast.9 mph82%30.39 "HgN/A
12:00 am46 °FMostly cloudy.8 mph82%30.39 "HgN/A
11:30 pm
Thu, Dec 8
46 °FOvercast.8 mph82%30.39 "HgN/A
11:00 pm46 °FOvercast.7 mph82%30.39 "HgN/A
10:30 pm46 °FOvercast.8 mph82%30.39 "HgN/A
10:00 pm46 °FOvercast.7 mph82%30.39 "HgN/A
9:30 pm46 °FOvercast.7 mph82%30.39 "HgN/A
9:00 pm46 °FPartly cloudy.8 mph76%30.36 "HgN/A
8:30 pm46 °FOvercast.13 mph76%30.36 "HgN/A
8:00 pm46 °FMostly cloudy.12 mph82%30.36 "HgN/A
7:30 pm46 °FMostly cloudy.15 mph82%30.36 "HgN/A
7:00 pm46 °FOvercast.10 mph82%30.36 "HgN/A
6:30 pm46 °FOvercast.13 mph82%30.33 "HgN/A
6:00 pm45 °FPassing clouds.8 mph87%30.36 "Hg6 mi
5:30 pm45 °FPassing clouds.9 mph87%30.33 "Hg5 mi
5:00 pm45 °FClear.7 mph81%30.33 "Hg5 mi
4:30 pm45 °FClear.8 mph87%30.33 "Hg5 mi
4:00 pm46 °FClear.8 mph76%30.33 "Hg6 mi
3:30 pm46 °FPassing clouds.9 mph82%30.33 "HgN/A
3:00 pm46 °FClear.10 mph76%30.33 "Hg6 mi
2:30 pm46 °FClear.10 mph76%30.36 "Hg5 mi
2:00 pm45 °FClear.12 mph81%30.36 "Hg5 mi
1:30 pm45 °FSunny.13 mph81%30.36 "Hg10 mi
1:00 pm45 °FClear.10 mph81%30.36 "Hg6 mi
12:30 pm45 °FClear.9 mph76%30.39 "Hg6 mi
12:00 pm43 °FClear.9 mph81%30.39 "Hg6 mi
11:30 am41 °FClear.9 mph81%30.39 "Hg6 mi
11:00 am39 °FClear.7 mph87%30.39 "Hg5 mi
10:30 am37 °FClear.8 mph93%30.39 "Hg5 mi
10:00 am37 °FClear.6 mph87%30.39 "Hg5 mi
9:30 am37 °FClear.6 mph87%30.42 "Hg6 mi
9:00 am37 °FClear.6 mph87%30.42 "Hg6 mi
8:30 am37 °FClear.9 mph87%30.39 "Hg6 mi
Weather by CustomWeather, © 2016

See weather overviewHow to use our weather pages